Home > Weather > Glendale > Past weeks

Flag for USA Past Weather in Glendale, Arizona, USA — Yesterday and Last 2 Weeks

Now
98 °F

Sunny.


Feels Like: 98 °F
Forecast: 87 / 107 °F
Wind: 10 mph from Southwest

Location: Phoenix-Deer Valley Municipal Airport

Current Time: Jul 25, 2016 at 1:07:18 PM

Latest Report: Jul 25, 2016 at 11:53 AM


Visibility: 10 mi

Pressure: 29.84 "Hg

Humidity: 27%

Dew Point: 59 °F

Location of GlendaleLocation

Past Weather in Glendale — Graph

°F

Glendale Temperature Yesterday

Maximum temperature yesterday: 106 °F (at 4:53 PM)
Minimum temperature yesterday: 88 °F (at 5:53 AM)
Average temperature yesterday: 97 °F

High & Low Weather Summary for the Past Weeks

 TemperatureHumidityPressure
High110 °F (Jul 22, 3:53 PM)62% (Jul 18, 5:53 AM)29.95 "Hg (Jul 18, 5:53 AM)
Low74 °F (Jul 12, 3:53 AM)6% (Jul 10, 5:53 PM)29.60 "Hg (Jul 10, 7:53 PM)
Average96 °F23%29.78 "Hg
* Reported Jul 10 11:53 AM — Jul 25 11:53 AM, Glendale, Weather by CustomWeather, © 2016

Note: Actual official high and low records may vary slightly from our data, if they occured in-between our weather recording intervals... More about our weather records

Advertising

Glendale Weather History for the Previous 24 Hours

Scroll right to see more
 ConditionsComfort  
Time TempWeatherWind HumidityBarometerVisibility
11:53 AM
Mon, Jul 25
98 °FSunny.10 mph27%29.84 "Hg10 mi
10:53 AM95 °FSunny.5 mph30%29.86 "Hg10 mi
9:53 AM94 °FSunny.5 mph30%29.89 "Hg10 mi
8:53 AM92 °FSunny.No wind33%29.89 "Hg10 mi
7:53 AM90 °FSunny.3 mph37%29.90 "Hg10 mi
6:53 AM88 °FSunny.No wind39%29.88 "Hg10 mi
5:53 AM86 °FSunny.5 mph40%29.86 "Hg10 mi
4:53 AM87 °FClear.6 mph39%29.82 "Hg10 mi
3:53 AM87 °FClear.No wind40%29.82 "Hg10 mi
2:53 AM87 °FClear.5 mph43%29.81 "Hg10 mi
1:53 AM89 °FClear.8 mph42%29.79 "Hg10 mi
12:53 AM91 °FClear.12 mph39%29.78 "Hg10 mi
11:53 PM
Sun, Jul 24
93 °FClear.8 mph36%29.76 "Hg10 mi
10:53 PM97 °FClear.12 mph25%29.74 "Hg10 mi
9:53 PM99 °FClear.7 mph24%29.72 "Hg10 mi
8:53 PM100 °FClear.7 mph23%29.71 "Hg10 mi
7:53 PM102 °FClear.10 mph21%29.70 "Hg10 mi
6:53 PM103 °FSunny.13 mph21%29.70 "Hg10 mi
5:53 PM105 °FSunny.13 mph20%29.69 "Hg10 mi
4:53 PM106 °FSunny.15 mph19%29.69 "Hg10 mi
3:53 PM104 °FSunny.15 mph21%29.72 "Hg10 mi
2:53 PM103 °FSunny.10 mph23%29.74 "Hg10 mi
1:53 PM103 °FSunny.13 mph22%29.78 "Hg10 mi
Weather by CustomWeather, © 2016

See weather overviewHow to use our weather pages